| time (UTC) | temp F | wind direction | speed MPH | gust MPH | rain 1hr in | rain 24hr in | rain mn in | humidity % | barometer mb |
| 20260504031537 | 61 | 151 | 1.0 | 4.0 | 0.00 | 0.00 | 0.00 | 61 | 1016.7 |
| 20260504031015 | 61 | 0 | 0.0 | 2.0 | 0.00 | 0.00 | 0.00 | 61 | 1016.8 |
| 20260504030515 | 61 | 159 | 0.0 | 2.0 | 0.00 | 0.00 | 0.00 | 60 | 1016.7 |
| 20260504030034 | 61 | 0 | 0.0 | 2.0 | 0.00 | 0.00 | 0.00 | 59 | 1016.6 |
| 20260504025516 | 62 | 0 | 0.0 | 1.0 | 0.00 | 0.00 | 0.00 | 58 | 1016.4 |
| 20260504025019 | 61 | 0 | 0.0 | 1.0 | 0.00 | 0.00 | 0.00 | 59 | 1016.5 |
| 20260504024544 | 62 | 159 | 0.0 | 2.0 | 0.00 | 0.00 | 0.00 | 57 | 1016.4 |
| 20260504024017 | 62 | 0 | 0.0 | 2.0 | 0.00 | 0.00 | 0.00 | 57 | 1016.4 |
| 20260504023516 | 63 | 0 | 0.0 | 2.0 | 0.00 | 0.00 | 0.00 | 55 | 1016.4 |
| 20260504023037 | 63 | 0 | 0.0 | 3.0 | 0.00 | 0.00 | 0.00 | 54 | 1016.4 |
| 20260504022516 | 64 | 163 | 1.0 | 3.0 | 0.00 | 0.00 | 0.00 | 53 | 1016.5 |
| 20260504022017 | 64 | 0 | 0.0 | 2.0 | 0.00 | 0.00 | 0.00 | 53 | 1016.4 |
| 20260504021539 | 64 | 0 | 0.0 | 1.0 | 0.00 | 0.00 | 0.00 | 52 | 1016.4 |
| 20260504021015 | 64 | 0 | 0.0 | 1.0 | 0.00 | 0.00 | 0.00 | 52 | 1016.3 |
| 20260504020515 | 65 | 0 | 0.0 | 1.0 | 0.00 | 0.00 | 0.00 | 52 | 1016.4 |
| 20260504020032 | 65 | 0 | 0.0 | 1.0 | 0.00 | 0.00 | 0.00 | 51 | 1016.4 |
| 20260504015516 | 65 | 0 | 0.0 | 1.0 | 0.00 | 0.00 | 0.00 | 50 | 1016.4 |
| 20260504015016 | 65 | 0 | 0.0 | 2.0 | 0.00 | 0.00 | 0.00 | 50 | 1016.4 |
| 20260504014532 | 66 | 186 | 0.0 | 2.0 | 0.00 | 0.00 | 0.00 | 49 | 1016.3 |
| 20260504014018 | 66 | 186 | 0.0 | 2.0 | 0.00 | 0.00 | 0.00 | 48 | 1016.3 |
| 20260504013516 | 66 | 210 | 0.0 | 2.0 | 0.00 | 0.00 | 0.00 | 48 | 1016.3 |
| 20260504013046 | 67 | 0 | 0.0 | 2.0 | 0.00 | 0.00 | 0.00 | 47 | 1016.3 |
| 20260504012516 | 67 | 0 | 0.0 | 2.0 | 0.00 | 0.00 | 0.00 | 47 | 1016.3 |
| 20260504012017 | 67 | 124 | 0.0 | 2.0 | 0.00 | 0.00 | 0.00 | 47 | 1016.3 |
| 20260504011537 | 67 | 0 | 0.0 | 2.0 | 0.00 | 0.00 | 0.00 | 46 | 1016.2 |
| 20260504011015 | 68 | 0 | 0.0 | 2.0 | 0.00 | 0.00 | 0.00 | 46 | 1016.3 |
| 20260504010519 | 69 | 0 | 0.0 | 2.0 | 0.00 | 0.00 | 0.00 | 44 | 1016.2 |
| 20260504010036 | 69 | 0 | 0.0 | 2.0 | 0.00 | 0.00 | 0.00 | 44 | 1016.1 |
| 20260504005516 | 69 | 0 | 0.0 | 2.0 | 0.00 | 0.00 | 0.00 | 43 | 1016.1 |
| 20260504005016 | 70 | 180 | 0.0 | 6.0 | 0.00 | 0.00 | 0.00 | 43 | 1016.1 |
| 20260504004541 | 71 | 185 | 1.0 | 6.0 | 0.00 | 0.00 | 0.00 | 42 | 1016.2 |
| 20260504004016 | 71 | 181 | 1.0 | 6.0 | 0.00 | 0.00 | 0.00 | 41 | 1016.1 |
| 20260504003515 | 72 | 194 | 2.0 | 6.0 | 0.00 | 0.00 | 0.00 | 40 | 1016.1 |
| 20260504003033 | 72 | 188 | 2.0 | 7.0 | 0.00 | 0.00 | 0.00 | 39 | 1016.2 |
| 20260504002515 | 73 | 155 | 2.0 | 8.0 | 0.00 | 0.00 | 0.00 | 40 | 1016.3 |
| 20260504002017 | 74 | 188 | 2.0 | 8.0 | 0.00 | 0.00 | 0.00 | 38 | 1016.3 |
| 20260504001534 | 75 | 185 | 2.0 | 7.0 | 0.00 | 0.00 | 0.00 | 37 | 1016.3 |
| 20260504001017 | 75 | 191 | 2.0 | 7.0 | 0.00 | 0.00 | 0.00 | 39 | 1016.5 |
| 20260504000519 | 75 | 188 | 2.0 | 8.0 | 0.00 | 0.00 | 0.00 | 38 | 1016.5 |
| 20260504000034 | 76 | 197 | 3.0 | 12.0 | 0.00 | 0.00 | 0.00 | 38 | 1016.5 |
| 20260503235516 | 76 | 188 | 3.0 | 13.0 | 0.00 | 0.00 | 0.00 | 36 | 1016.5 |
| 20260503235017 | 76 | 175 | 5.0 | 13.0 | 0.00 | 0.00 | 0.00 | 35 | 1016.6 |
| 20260503234532 | 76 | 187 | 2.0 | 12.0 | 0.00 | 0.00 | 0.00 | 37 | 1016.6 |
| 20260503234016 | 77 | 151 | 4.0 | 12.0 | 0.00 | 0.00 | 0.00 | 35 | 1016.7 |
| 20260503233516 | 77 | 223 | 2.0 | 11.0 | 0.00 | 0.00 | 0.00 | 35 | 1016.8 |
| 20260503233034 | 77 | 180 | 4.0 | 11.0 | 0.00 | 0.00 | 0.00 | 34 | 1016.8 |
| 20260503232516 | 78 | 196 | 3.0 | 12.0 | 0.00 | 0.00 | 0.00 | 35 | 1016.9 |
| 20260503232017 | 77 | 168 | 5.0 | 12.0 | 0.00 | 0.00 | 0.00 | 34 | 1017.0 |
| 20260503231534 | 77 | 150 | 3.0 | 9.0 | 0.00 | 0.00 | 0.00 | 34 | 1017.0 |
| 20260503231016 | 76 | 224 | 4.0 | 9.0 | 0.00 | 0.00 | 0.00 | 34 | 1017.0 |
| 20260503230515 | 76 | 188 | 2.0 | 9.0 | 0.00 | 0.00 | 0.00 | 34 | 1017.0 |
| 20260503230032 | 76 | 184 | 2.0 | 9.0 | 0.00 | 0.00 | 0.00 | 35 | 1017.1 |
| 20260503225516 | 76 | 151 | 2.0 | 10.0 | 0.00 | 0.00 | 0.00 | 33 | 1017.0 |
| 20260503225015 | 76 | 164 | 3.0 | 10.0 | 0.00 | 0.00 | 0.00 | 34 | 1017.2 |
| 20260503224531 | 75 | 145 | 2.0 | 7.0 | 0.00 | 0.00 | 0.00 | 34 | 1017.3 |
| 20260503224016 | 75 | 121 | 3.0 | 9.0 | 0.00 | 0.00 | 0.00 | 34 | 1017.3 |
| 20260503223516 | 76 | 164 | 3.0 | 9.0 | 0.00 | 0.00 | 0.00 | 33 | 1017.3 |
| 20260503223034 | 77 | 199 | 2.0 | 15.0 | 0.00 | 0.00 | 0.00 | 31 | 1017.3 |
| 20260503222515 | 79 | 163 | 4.0 | 15.0 | 0.00 | 0.00 | 0.00 | 30 | 1017.3 |
| 20260503222016 | 79 | 186 | 6.0 | 12.0 | 0.00 | 0.00 | 0.00 | 31 | 1017.5 |
| 20260503221536 | 79 | 166 | 4.0 | 13.0 | 0.00 | 0.00 | 0.00 | 31 | 1017.4 |
| 20260503221017 | 79 | 134 | 3.0 | 13.0 | 0.00 | 0.00 | 0.00 | 32 | 1017.3 |
| 20260503220515 | 79 | 202 | 6.0 | 13.0 | 0.00 | 0.00 | 0.00 | 31 | 1017.4 |
| 20260503220034 | 79 | 123 | 3.0 | 12.0 | 0.00 | 0.00 | 0.00 | 32 | 1017.4 |
| 20260503215516 | 79 | 186 | 4.0 | 12.0 | 0.00 | 0.00 | 0.00 | 33 | 1017.4 |
| 20260503215016 | 79 | 152 | 3.0 | 10.0 | 0.00 | 0.00 | 0.00 | 34 | 1017.5 |
| 20260503214536 | 79 | 130 | 3.0 | 10.0 | 0.00 | 0.00 | 0.00 | 34 | 1017.6 |
| 20260503214016 | 80 | 269 | 5.0 | 10.0 | 0.00 | 0.00 | 0.00 | 33 | 1017.6 |
| 20260503213519 | 80 | 207 | 4.0 | 9.0 | 0.00 | 0.00 | 0.00 | 32 | 1017.8 |
| 20260503213032 | 80 | 145 | 3.0 | 9.0 | 0.00 | 0.00 | 0.00 | 35 | 1017.9 |
| 20260503212516 | 80 | 126 | 4.0 | 10.0 | 0.00 | 0.00 | 0.00 | 34 | 1018.0 |
| 20260503212016 | 80 | 155 | 4.0 | 10.0 | 0.00 | 0.00 | 0.00 | 34 | 1018.0 |
| 20260503211538 | 80 | 157 | 4.0 | 15.0 | 0.00 | 0.00 | 0.00 | 32 | 1018.1 |
| 20260503211026 | 80 | 164 | 3.0 | 15.0 | 0.00 | 0.00 | 0.00 | 35 | 1018.1 |
| 20260503210515 | 80 | 207 | 7.0 | 15.0 | 0.00 | 0.00 | 0.00 | 34 | 1018.2 |
| 20260503210037 | 79 | 242 | 5.0 | 15.0 | 0.00 | 0.00 | 0.00 | 35 | 1018.4 |
| 20260503205522 | 80 | 234 | 5.0 | 15.0 | 0.00 | 0.00 | 0.00 | 34 | 1018.6 |
| 20260503205016 | 79 | 215 | 5.0 | 14.0 | 0.00 | 0.00 | 0.00 | 35 | 1018.7 |
| 20260503204532 | 80 | 221 | 5.0 | 12.0 | 0.00 | 0.00 | 0.00 | 33 | 1018.7 |
| 20260503204016 | 79 | 135 | 6.0 | 17.0 | 0.00 | 0.00 | 0.00 | 34 | 1018.9 |
| 20260503203515 | 80 | 151 | 7.0 | 17.0 | 0.00 | 0.00 | 0.00 | 32 | 1018.9 |
| 20260503203037 | 80 | 192 | 3.0 | 15.0 | 0.00 | 0.00 | 0.00 | 35 | 1019.0 |
| 20260503202516 | 80 | 186 | 4.0 | 13.0 | 0.00 | 0.00 | 0.00 | 34 | 1019.2 |
| 20260503202017 | 79 | 162 | 6.0 | 13.0 | 0.00 | 0.00 | 0.00 | 33 | 1019.2 |
| 20260503201534 | 81 | 198 | 4.0 | 11.0 | 0.00 | 0.00 | 0.00 | 34 | 1019.3 |
| 20260503201015 | 79 | 208 | 5.0 | 12.0 | 0.00 | 0.00 | 0.00 | 34 | 1019.3 |
| 20260503200515 | 80 | 194 | 5.0 | 12.0 | 0.00 | 0.00 | 0.00 | 33 | 1019.6 |
| 20260503200034 | 80 | 157 | 4.0 | 13.0 | 0.00 | 0.00 | 0.00 | 36 | 1019.5 |
| 20260503195517 | 81 | 167 | 4.0 | 13.0 | 0.00 | 0.00 | 0.00 | 35 | 1019.5 |
| 20260503195017 | 79 | 207 | 6.0 | 13.0 | 0.00 | 0.00 | 0.00 | 33 | 1019.7 |
| 20260503194540 | 79 | 201 | 5.0 | 16.0 | 0.00 | 0.00 | 0.00 | 35 | 1019.8 |
| 20260503194015 | 79 | 227 | 10.0 | 16.0 | 0.00 | 0.00 | 0.00 | 33 | 1019.8 |
| 20260503193516 | 80 | 149 | 4.0 | 12.0 | 0.00 | 0.00 | 0.00 | 33 | 1019.8 |
| 20260503193041 | 80 | 176 | 4.0 | 13.0 | 0.00 | 0.00 | 0.00 | 33 | 1019.9 |
| 20260503192514 | 79 | 186 | 5.0 | 13.0 | 0.00 | 0.00 | 0.00 | 32 | 1019.9 |
| 20260503192018 | 80 | 200 | 5.0 | 12.0 | 0.00 | 0.00 | 0.00 | 33 | 1020.0 |
| 20260503191538 | 80 | 230 | 3.0 | 10.0 | 0.00 | 0.00 | 0.00 | 34 | 1020.2 |
| 20260503191020 | 80 | 156 | 3.0 | 12.0 | 0.00 | 0.00 | 0.00 | 34 | 1020.2 |
| 20260503190515 | 80 | 142 | 2.0 | 12.0 | 0.00 | 0.00 | 0.00 | 34 | 1020.3 |
| 20260503190041 | 80 | 163 | 4.0 | 13.0 | 0.00 | 0.00 | 0.00 | 33 | 1020.3 |
| 20260503185515 | 78 | 219 | 6.0 | 14.0 | 0.00 | 0.00 | 0.00 | 36 | 1020.3 |
| 20260503185016 | 78 | 207 | 6.0 | 14.0 | 0.00 | 0.00 | 0.00 | 36 | 1020.5 |
| 20260503184534 | 79 | 221 | 3.0 | 17.0 | 0.00 | 0.00 | 0.00 | 35 | 1020.6 |
| 20260503184015 | 79 | 179 | 5.0 | 17.0 | 0.00 | 0.00 | 0.00 | 35 | 1020.7 |
| 20260503183516 | 78 | 158 | 4.0 | 15.0 | 0.00 | 0.00 | 0.00 | 37 | 1020.8 |
| 20260503183037 | 79 | 256 | 6.0 | 14.0 | 0.00 | 0.00 | 0.00 | 33 | 1020.9 |
| 20260503182523 | 79 | 152 | 4.0 | 12.0 | 0.00 | 0.00 | 0.00 | 36 | 1021.0 |
| 20260503182017 | 78 | 159 | 5.0 | 14.0 | 0.00 | 0.00 | 0.00 | 35 | 1021.1 |
| 20260503181537 | 77 | 207 | 7.0 | 14.0 | 0.00 | 0.00 | 0.00 | 37 | 1021.2 |
| 20260503181018 | 77 | 237 | 5.0 | 14.0 | 0.00 | 0.00 | 0.00 | 36 | 1021.3 |
| 20260503180518 | 77 | 270 | 8.0 | 14.0 | 0.00 | 0.00 | 0.00 | 35 | 1021.2 |
| 20260503180034 | 78 | 219 | 5.0 | 13.0 | 0.00 | 0.00 | 0.00 | 37 | 1021.3 |
| 20260503175516 | 78 | 181 | 4.0 | 13.0 | 0.00 | 0.00 | 0.00 | 37 | 1021.4 |
| 20260503175018 | 77 | 209 | 5.0 | 19.0 | 0.00 | 0.00 | 0.00 | 39 | 1021.4 |
| 20260503174547 | 76 | 219 | 8.0 | 19.0 | 0.00 | 0.00 | 0.00 | 37 | 1021.6 |
| 20260503174015 | 76 | 239 | 7.0 | 16.0 | 0.00 | 0.00 | 0.00 | 38 | 1021.6 |
| 20260503173515 | 76 | 254 | 8.0 | 16.0 | 0.00 | 0.00 | 0.00 | 37 | 1021.7 |
| 20260503173032 | 76 | 234 | 5.0 | 14.0 | 0.00 | 0.00 | 0.00 | 42 | 1021.8 |
| 20260503172517 | 76 | 221 | 8.0 | 14.0 | 0.00 | 0.00 | 0.00 | 41 | 1021.8 |
| 20260503172015 | 76 | 237 | 6.0 | 15.0 | 0.00 | 0.00 | 0.00 | 43 | 1021.8 |
| 20260503171534 | 76 | 246 | 7.0 | 15.0 | 0.00 | 0.00 | 0.00 | 40 | 1022.0 |
| 20260503171016 | 76 | 223 | 4.0 | 13.0 | 0.00 | 0.00 | 0.00 | 44 | 1022.0 |
| 20260503170516 | 75 | 245 | 5.0 | 15.0 | 0.00 | 0.00 | 0.00 | 44 | 1022.1 |
| 20260503150515 | 68 | 245 | 9.0 | 18.0 | 0.00 | 0.00 | 0.00 | 54 | 1022.8 |
| 20260503131015 | 58 | 239 | 5.0 | 9.0 | 0.00 | 0.00 | 0.00 | 71 | 1022.2 |
| 20260503130516 | 57 | 227 | 5.0 | 9.0 | 0.00 | 0.00 | 0.00 | 71 | 1022.2 |
| 20260503110515 | 50 | 200 | 0.0 | 3.0 | 0.00 | 0.00 | 0.00 | 82 | 1021.1 |
| 20260503081542 | 51 | 0 | 0.0 | 2.0 | 0.00 | 0.00 | 0.00 | 78 | 1020.7 |
| 20260503081015 | 52 | 0 | 0.0 | 2.0 | 0.00 | 0.00 | 0.00 | 78 | 1020.7 |
| 20260503080515 | 52 | 0 | 0.0 | 1.0 | 0.00 | 0.00 | 0.00 | 78 | 1020.7 |
| 20260503072515 | 52 | 0 | 0.0 | 0.0 | 0.00 | 0.00 | 0.00 | 77 | 1020.9 |
| 20260503072014 | 53 | 0 | 0.0 | 2.0 | 0.00 | 0.00 | 0.00 | 76 | 1021.0 |
| 20260503071539 | 53 | 0 | 0.0 | 2.0 | 0.00 | 0.00 | 0.00 | 76 | 1021.0 |
| 20260503071015 | 54 | 213 | 0.0 | 2.0 | 0.00 | 0.00 | 0.00 | 74 | 1021.0 |
| 20260503070515 | 54 | 213 | 0.0 | 2.0 | 0.00 | 0.00 | 0.00 | 74 | 1021.1 |
| 20260503055016 | 54 | 0 | 0.0 | 2.0 | 0.00 | 0.00 | 0.00 | 76 | 1021.4 |
| 20260503054535 | 53 | 0 | 0.0 | 2.0 | 0.00 | 0.00 | 0.00 | 77 | 1021.4 |
| 20260503054020 | 53 | 0 | 0.0 | 1.0 | 0.00 | 0.00 | 0.00 | 78 | 1021.4 |
| 20260503053516 | 53 | 0 | 0.0 | 1.0 | 0.00 | 0.00 | 0.00 | 78 | 1021.4 |
| 20260503053033 | 53 | 0 | 0.0 | 0.0 | 0.00 | 0.00 | 0.00 | 78 | 1021.4 |
| 20260503052516 | 52 | 0 | 0.0 | 0.0 | 0.00 | 0.00 | 0.00 | 79 | 1021.4 |
| 20260503052022 | 52 | 0 | 0.0 | 1.0 | 0.00 | 0.00 | 0.00 | 79 | 1021.4 |
| 20260503051530 | 53 | 0 | 0.0 | 1.0 | 0.00 | 0.00 | 0.00 | 79 | 1021.4 |
| 20260503051015 | 52 | 0 | 0.0 | 1.0 | 0.00 | 0.00 | 0.00 | 81 | 1021.4 |
| 20260503050516 | 52 | 0 | 0.0 | 1.0 | 0.00 | 0.00 | 0.00 | 82 | 1021.4 |
| 20260503050033 | 52 | 0 | 0.0 | 1.0 | 0.00 | 0.00 | 0.00 | 82 | 1021.4 |
| 20260503045519 | 52 | 0 | 0.0 | 1.0 | 0.00 | 0.00 | 0.00 | 82 | 1021.4 |
| 20260503045015 | 52 | 0 | 0.0 | 0.0 | 0.00 | 0.00 | 0.00 | 81 | 1021.3 |
| 20260503044541 | 52 | 0 | 0.0 | 0.0 | 0.00 | 0.00 | 0.00 | 81 | 1021.3 |
| 20260503044015 | 52 | 0 | 0.0 | 0.0 | 0.00 | 0.00 | 0.00 | 80 | 1021.3 |
| 20260503043520 | 52 | 0 | 0.0 | 0.0 | 0.00 | 0.00 | 0.00 | 79 | 1021.3 |
| 20260503043029 | 52 | 0 | 0.0 | 0.0 | 0.00 | 0.00 | 0.00 | 80 | 1021.3 |
| 20260503042515 | 52 | 0 | 0.0 | 1.0 | 0.00 | 0.00 | 0.00 | 79 | 1021.3 |
| 20260503042016 | 52 | 0 | 0.0 | 2.0 | 0.00 | 0.00 | 0.00 | 79 | 1021.3 |
| 20260503041530 | 53 | 0 | 0.0 | 2.0 | 0.00 | 0.00 | 0.00 | 78 | 1021.4 |
| 20260503041016 | 53 | 0 | 0.0 | 0.0 | 0.00 | 0.00 | 0.00 | 77 | 1021.4 |
| 20260503040516 | 53 | 0 | 0.0 | 0.0 | 0.00 | 0.00 | 0.00 | 76 | 1021.4 |
| 20260503040028 | 54 | 0 | 0.0 | 0.0 | 0.00 | 0.00 | 0.00 | 77 | 1021.4 |
| 20260503035515 | 54 | 0 | 0.0 | 0.0 | 0.00 | 0.00 | 0.00 | 76 | 1021.4 |
| 20260503035016 | 54 | 0 | 0.0 | 0.0 | 0.00 | 0.00 | 0.00 | 76 | 1021.4 |
| 20260503034529 | 53 | 0 | 0.0 | 0.0 | 0.00 | 0.00 | 0.00 | 76 | 1021.4 |
| 20260503034014 | 53 | 0 | 0.0 | 0.0 | 0.00 | 0.00 | 0.00 | 76 | 1021.4 |
| 20260503033516 | 54 | 0 | 0.0 | 0.0 | 0.00 | 0.00 | 0.00 | 75 | 1021.4 |
| 20260503033032 | 54 | 0 | 0.0 | 0.0 | 0.00 | 0.00 | 0.00 | 73 | 1021.3 |
| 20260503032515 | 54 | 0 | 0.0 | 0.0 | 0.00 | 0.00 | 0.00 | 75 | 1021.3 |
| 20260503032015 | 53 | 0 | 0.0 | 0.0 | 0.00 | 0.00 | 0.00 | 78 | 1021.4 |